Time,TemperatureF,DewpointF,PressureIn,WindDirection,WindDirectionDegrees,WindSpeedMPH,WindSpeedGustMPH,Humidity,HourlyPrecipIn,Conditions,Clouds,dailyrainin,SoftwareType,DateUTC
2013-02-01 00:01:00,-12.2,-19.2,30.36,NW,323,0.0,5.0,70,0.00,,---,0.00,VWS V14.01,2013-02-01 06:01:00,
2013-02-01 00:06:00,-12.3,-19.3,30.37,WNW,297,0.0,6.0,70,0.00,,---,0.00,VWS V14.01,2013-02-01 06:06:00,
2013-02-01 00:11:00,-12.3,-19.3,30.37,NNW,334,0.0,6.0,70,0.00,,---,0.00,VWS V14.01,2013-02-01 06:11:00,
2013-02-01 00:16:00,-12.4,-19.4,30.37,West,281,0.0,6.0,70,0.00,,---,0.00,VWS V14.01,2013-02-01 06:16:00,
2013-02-01 00:21:00,-12.5,-19.5,30.37,NW,326,0.0,6.0,70,0.00,,---,0.00,VWS V14.01,2013-02-01 06:21:00,
2013-02-01 00:26:00,-12.5,-19.5,30.37,NW,326,0.0,6.0,70,0.00,,---,0.00,VWS V14.01,2013-02-01 06:26:00,
2013-02-01 00:30:00,-13.5,-20.5,30.37,WNW,299,0.0,0.0,70,0.00,,---,0.00,VWS V14.01,2013-02-01 06:30:00,
2013-02-01 00:31:00,-12.6,-19.6,30.37,NNW,342,0.0,0.0,70,0.00,,---,0.00,VWS V14.01,2013-02-01 06:31:00,
2013-02-01 00:36:00,-12.6,-19.6,30.37,NW,326,1.0,3.0,70,0.00,,---,0.00,VWS V14.01,2013-02-01 06:36:00,
2013-02-01 00:41:00,-12.7,-19.7,30.37,West,281,0.0,3.0,70,0.00,,---,0.00,VWS V14.01,2013-02-01 06:41:00,
2013-02-01 00:46:00,-12.7,-19.7,30.37,NNW,342,0.0,3.0,70,0.00,,---,0.00,VWS V14.01,2013-02-01 06:46:00,
2013-02-01 00:51:00,-12.8,-19.8,30.37,WNW,294,5.0,5.0,70,0.00,,---,0.00,VWS V14.01,2013-02-01 06:51:00,
2013-02-01 00:56:00,-12.9,-19.9,30.37,WNW,299,0.0,5.0,70,0.00,,---,0.00,VWS V14.01,2013-02-01 06:56:00,
2013-02-01 01:00:00,-14.3,-21.0,30.36,WNW,298,0.0,0.0,71,0.00,,---,0.00,VWS V14.01,2013-02-01 07:00:00,
2013-02-01 01:01:00,-12.9,-19.9,30.37,WNW,299,0.0,5.0,70,0.00,,---,0.00,VWS V14.01,2013-02-01 07:01:00,
2013-02-01 01:06:00,-13.0,-20.0,30.37,WNW,299,0.0,0.0,70,0.00,,---,0.00,VWS V14.01,2013-02-01 07:06:00,
2013-02-01 01:11:00,-13.1,-20.1,30.37,WNW,299,0.0,0.0,70,0.00,,---,0.00,VWS V14.01,2013-02-01 07:11:00,
2013-02-01 01:16:00,-13.2,-20.2,30.37,WNW,299,0.0,0.0,70,0.00,,---,0.00,VWS V14.01,2013-02-01 07:16:00,
2013-02-01 01:21:00,-13.3,-20.3,30.37,WNW,299,0.0,0.0,70,0.00,,---,0.00,VWS V14.01,2013-02-01 07:21:00,
2013-02-01 01:26:00,-13.4,-20.4,30.37,WNW,299,0.0,0.0,70,0.00,,---,0.00,VWS V14.01,2013-02-01 07:26:00,
2013-02-01 01:30:00,-14.8,-21.2,30.37,WNW,298,0.0,0.0,72,0.00,,---,0.00,VWS V14.01,2013-02-01 07:30:00,
2013-02-01 01:31:00,-13.5,-20.5,30.37,WNW,299,0.0,0.0,70,0.00,,---,0.00,VWS V14.01,2013-02-01 07:31:00,
2013-02-01 01:36:00,-13.6,-20.5,30.37,WNW,299,0.0,0.0,70,0.00,,---,0.00,VWS V14.01,2013-02-01 07:36:00,
2013-02-01 01:41:00,-13.8,-20.8,30.36,WNW,299,0.0,0.0,70,0.00,,---,0.00,VWS V14.01,2013-02-01 07:41:00,
2013-02-01 01:46:00,-13.9,-20.6,30.36,WNW,298,0.0,0.0,71,0.00,,---,0.00,VWS V14.01,2013-02-01 07:46:00,
2013-02-01 01:51:00,-14.0,-20.7,30.36,WNW,298,0.0,0.0,71,0.00,,---,0.00,VWS V14.01,2013-02-01 07:51:00,
2013-02-01 01:56:00,-14.1,-20.8,30.36,WNW,298,0.0,0.0,71,0.00,,---,0.00,VWS V14.01,2013-02-01 07:56:00,
2013-02-01 02:00:00,-15.3,-21.7,30.37,WNW,298,0.0,0.0,72,0.00,,---,0.00,VWS V14.01,2013-02-01 08:00:00,
2013-02-01 02:01:00,-14.3,-21.0,30.36,WNW,298,0.0,0.0,71,0.00,,---,0.00,VWS V14.01,2013-02-01 08:01:00,
2013-02-01 02:06:00,-14.5,-21.1,30.36,WNW,298,0.0,0.0,71,0.00,,---,0.00,VWS V14.01,2013-02-01 08:06:00,
2013-02-01 02:11:00,-14.7,-21.4,30.36,WNW,298,0.0,0.0,71,0.00,,---,0.00,VWS V14.01,2013-02-01 08:11:00,
2013-02-01 02:16:00,-14.7,-21.4,30.36,WNW,298,0.0,0.0,71,0.00,,---,0.00,VWS V14.01,2013-02-01 08:16:00,
2013-02-01 02:21:00,-14.8,-21.2,30.37,WNW,298,0.0,0.0,72,0.00,,---,0.00,VWS V14.01,2013-02-01 08:21:00,
2013-02-01 02:26:00,-14.8,-21.2,30.37,WNW,298,0.0,0.0,72,0.00,,---,0.00,VWS V14.01,2013-02-01 08:26:00,
2013-02-01 02:30:00,-15.9,-22.0,30.37,WNW,298,0.0,0.0,73,0.00,,---,0.00,VWS V14.01,2013-02-01 08:30:00,
2013-02-01 02:31:00,-14.8,-21.2,30.37,WNW,298,0.0,0.0,72,0.00,,---,0.00,VWS V14.01,2013-02-01 08:31:00,
2013-02-01 02:36:00,-14.9,-21.3,30.37,WNW,298,0.0,0.0,72,0.00,,---,0.00,VWS V14.01,2013-02-01 08:36:00,
2013-02-01 02:41:00,-14.9,-21.3,30.37,WNW,298,0.0,0.0,72,0.00,,---,0.00,VWS V14.01,2013-02-01 08:41:00,
2013-02-01 02:46:00,-15.0,-21.4,30.37,WNW,298,0.0,0.0,72,0.00,,---,0.00,VWS V14.01,2013-02-01 08:46:00,
2013-02-01 02:51:00,-15.1,-21.5,30.37,WNW,298,0.0,0.0,72,0.00,,---,0.00,VWS V14.01,2013-02-01 08:51:00,
2013-02-01 02:56:00,-15.2,-21.6,30.37,WNW,298,0.0,0.0,72,0.00,,---,0.00,VWS V14.01,2013-02-01 08:56:00,
2013-02-01 03:00:00,-16.1,-22.4,30.38,WNW,298,0.0,0.0,72,0.00,,---,0.00,VWS V14.01,2013-02-01 09:00:00,
2013-02-01 03:01:00,-15.3,-21.7,30.38,WNW,298,0.0,0.0,72,0.00,,---,0.00,VWS V14.01,2013-02-01 09:01:00,
2013-02-01 03:06:00,-15.4,-21.8,30.37,WNW,298,0.0,0.0,72,0.00,,---,0.00,VWS V14.01,2013-02-01 09:06:00,
2013-02-01 03:11:00,-15.6,-22.0,30.37,WNW,298,0.0,0.0,72,0.00,,---,0.00,VWS V14.01,2013-02-01 09:11:00,
2013-02-01 03:16:00,-15.8,-22.1,30.37,WNW,298,0.0,0.0,72,0.00,,---,0.00,VWS V14.01,2013-02-01 09:16:00,
2013-02-01 03:21:00,-15.9,-22.2,30.37,WNW,298,0.0,0.0,72,0.00,,---,0.00,VWS V14.01,2013-02-01 09:21:00,
2013-02-01 03:26:00,-15.9,-22.0,30.38,WNW,298,0.0,0.0,73,0.00,,---,0.00,VWS V14.01,2013-02-01 09:26:00,
2013-02-01 03:30:00,-17.1,-23.4,30.38,WNW,298,0.0,0.0,72,0.00,,---,0.00,VWS V14.01,2013-02-01 09:30:00,
2013-02-01 03:31:00,-15.9,-22.0,30.38,WNW,298,0.0,0.0,73,0.00,,---,0.00,VWS V14.01,2013-02-01 09:31:00,
2013-02-01 03:36:00,-15.8,-21.9,30.38,WNW,298,0.0,0.0,73,0.00,,---,0.00,VWS V14.01,2013-02-01 09:36:00,
2013-02-01 03:41:00,-15.9,-22.2,30.37,WNW,298,0.0,0.0,72,0.00,,---,0.00,VWS V14.01,2013-02-01 09:41:00,
2013-02-01 03:46:00,-16.0,-22.3,30.38,WNW,298,0.0,0.0,72,0.00,,---,0.00,VWS V14.01,2013-02-01 09:46:00,
2013-02-01 03:51:00,-16.1,-22.2,30.38,WNW,298,0.0,0.0,73,0.00,,---,0.00,VWS V14.01,2013-02-01 09:51:00,
2013-02-01 03:56:00,-16.1,-22.2,30.38,WNW,298,0.0,0.0,73,0.00,,---,0.00,VWS V14.01,2013-02-01 09:56:00,
2013-02-01 04:00:00,-16.6,-19.8,30.38,WNW,298,0.0,0.0,85,0.00,,---,0.00,VWS V14.01,2013-02-01 10:00:00,
2013-02-01 04:01:00,-16.1,-22.4,30.38,WNW,298,0.0,0.0,72,0.00,,---,0.00,VWS V14.01,2013-02-01 10:01:00,
2013-02-01 04:06:00,-16.2,-22.5,30.38,WNW,298,0.0,0.0,72,0.00,,---,0.00,VWS V14.01,2013-02-01 10:06:00,
2013-02-01 04:11:00,-16.3,-22.6,30.38,WNW,298,0.0,0.0,72,0.00,,---,0.00,VWS V14.01,2013-02-01 10:11:00,
2013-02-01 04:16:00,-16.5,-22.8,30.38,WNW,298,0.0,0.0,72,0.00,,---,0.00,VWS V14.01,2013-02-01 10:16:00,
2013-02-01 04:21:00,-16.6,-22.9,30.38,WNW,298,0.0,0.0,72,0.00,,---,0.00,VWS V14.01,2013-02-01 10:21:00,
2013-02-01 04:26:00,-16.9,-23.2,30.37,WNW,298,0.0,0.0,72,0.00,,---,0.00,VWS V14.01,2013-02-01 10:26:00,
2013-02-01 04:30:00,-17.1,-23.4,30.38,WNW,298,0.0,0.0,72,0.00,,---,0.00,VWS V14.01,2013-02-01 10:30:00,
2013-02-01 04:31:00,-17.1,-23.4,30.38,WNW,298,0.0,0.0,72,0.00,,---,0.00,VWS V14.01,2013-02-01 10:31:00,
2013-02-01 04:36:00,-17.1,-23.4,30.38,WNW,298,0.0,0.0,72,0.00,,---,0.00,VWS V14.01,2013-02-01 10:36:00,
2013-02-01 04:41:00,-17.1,-23.1,30.38,WNW,298,0.0,0.0,73,0.00,,---,0.00,VWS V14.01,2013-02-01 10:41:00,
2013-02-01 04:46:00,-16.9,-23.0,30.38,WNW,298,0.0,0.0,73,0.00,,---,0.00,VWS V14.01,2013-02-01 10:46:00,
2013-02-01 04:51:00,-16.7,-22.8,30.38,WNW,298,0.0,0.0,73,0.00,,---,0.00,VWS V14.01,2013-02-01 10:51:00,
2013-02-01 04:56:00,-16.6,-22.7,30.38,WNW,298,0.0,0.0,73,0.00,,---,0.00,VWS V14.01,2013-02-01 10:56:00,
2013-02-01 05:00:00,-17.4,-23.4,30.38,WNW,298,0.0,0.0,73,0.00,,---,0.00,VWS V14.01,2013-02-01 11:00:00,
2013-02-01 05:01:00,-16.6,-19.8,30.38,WNW,298,0.0,0.0,85,0.00,,---,0.00,VWS V14.01,2013-02-01 11:01:00,
2013-02-01 05:06:00,-16.6,-20.0,30.38,WNW,298,0.0,0.0,84,0.00,,---,0.00,VWS V14.01,2013-02-01 11:06:00,
2013-02-01 05:11:00,-16.6,-22.7,30.38,WNW,298,0.0,0.0,73,0.00,,---,0.00,VWS V14.01,2013-02-01 11:11:00,
2013-02-01 05:16:00,-16.8,-22.9,30.38,WNW,298,0.0,0.0,73,0.00,,---,0.00,VWS V14.01,2013-02-01 11:16:00,
2013-02-01 05:21:00,-16.9,-23.0,30.38,WNW,298,0.0,0.0,73,0.00,,---,0.00,VWS V14.01,2013-02-01 11:21:00,
2013-02-01 05:26:00,-16.9,-23.0,30.38,WNW,298,0.0,0.0,73,0.00,,---,0.00,VWS V14.01,2013-02-01 11:26:00,
2013-02-01 05:30:00,-17.6,-23.9,30.38,WNW,298,0.0,0.0,72,0.00,,---,0.00,VWS V14.01,2013-02-01 11:30:00,
2013-02-01 05:31:00,-17.1,-23.4,30.38,WNW,298,0.0,0.0,72,0.00,,---,0.00,VWS V14.01,2013-02-01 11:31:00,
2013-02-01 05:36:00,-17.2,-23.2,30.38,WNW,298,0.0,0.0,73,0.00,,---,0.00,VWS V14.01,2013-02-01 11:36:00,
2013-02-01 05:41:00,-17.2,-23.2,30.38,WNW,298,0.0,0.0,73,0.00,,---,0.00,VWS V14.01,2013-02-01 11:41:00,
2013-02-01 05:46:00,-17.4,-23.4,30.38,WNW,298,0.0,0.0,73,0.00,,---,0.00,VWS V14.01,2013-02-01 11:46:00,
2013-02-01 05:51:00,-17.4,-23.4,30.38,WNW,298,0.0,0.0,73,0.00,,---,0.00,VWS V14.01,2013-02-01 11:51:00,
2013-02-01 05:56:00,-17.4,-23.4,30.38,WNW,298,0.0,0.0,73,0.00,,---,0.00,VWS V14.01,2013-02-01 11:56:00,
2013-02-01 06:00:00,-18.4,-24.4,30.38,WNW,298,0.0,0.0,73,0.00,,---,0.00,VWS V14.01,2013-02-01 12:00:00,
2013-02-01 06:01:00,-17.4,-23.4,30.38,WNW,298,0.0,0.0,73,0.00,,---,0.00,VWS V14.01,2013-02-01 12:01:00,
2013-02-01 06:06:00,-17.5,-23.5,30.39,WNW,298,0.0,0.0,73,0.00,,---,0.00,VWS V14.01,2013-02-01 12:06:00,
2013-02-01 06:11:00,-17.5,-23.5,30.39,WNW,298,0.0,0.0,73,0.00,,---,0.00,VWS V14.01,2013-02-01 12:11:00,
2013-02-01 06:16:00,-17.5,-23.5,30.39,WNW,298,0.0,0.0,73,0.00,,---,0.00,VWS V14.01,2013-02-01 12:16:00,
2013-02-01 06:21:00,-17.4,-23.4,30.38,WNW,298,0.0,0.0,73,0.00,,---,0.00,VWS V14.01,2013-02-01 12:21:00,
2013-02-01 06:26:00,-17.5,-23.5,30.38,WNW,298,0.0,0.0,73,0.00,,---,0.00,VWS V14.01,2013-02-01 12:26:00,
2013-02-01 06:30:00,-19.2,-25.4,30.38,WNW,298,0.0,0.0,72,0.00,,---,0.00,VWS V14.01,2013-02-01 12:30:00,
2013-02-01 06:31:00,-17.6,-23.9,30.38,WNW,298,0.0,0.0,72,0.00,,---,0.00,VWS V14.01,2013-02-01 12:31:00,
2013-02-01 06:36:00,-17.9,-24.2,30.38,WNW,298,0.0,0.0,72,0.00,,---,0.00,VWS V14.01,2013-02-01 12:36:00,
2013-02-01 06:41:00,-18.1,-24.4,30.38,WNW,298,0.0,0.0,72,0.00,,---,0.00,VWS V14.01,2013-02-01 12:41:00,
2013-02-01 06:46:00,-18.3,-24.6,30.38,WNW,298,0.0,0.0,72,0.00,,---,0.00,VWS V14.01,2013-02-01 12:46:00,
2013-02-01 06:51:00,-18.3,-24.6,30.38,WNW,298,0.0,0.0,72,0.00,,---,0.00,VWS V14.01,2013-02-01 12:51:00,
2013-02-01 06:56:00,-18.4,-24.7,30.38,WNW,298,0.0,0.0,72,0.00,,---,0.00,VWS V14.01,2013-02-01 12:56:00,
2013-02-01 07:00:00,-19.7,-25.9,30.37,WNW,298,0.0,0.0,72,0.00,,---,0.00,VWS V14.01,2013-02-01 13:00:00,
2013-02-01 07:01:00,-18.4,-24.4,30.38,WNW,298,0.0,0.0,73,0.00,,---,0.00,VWS V14.01,2013-02-01 13:01:00,
2013-02-01 07:06:00,-18.5,-24.8,30.38,WNW,298,0.0,0.0,72,0.00,,---,0.00,VWS V14.01,2013-02-01 13:06:00,
2013-02-01 07:11:00,-18.6,-24.9,30.38,WNW,298,0.0,0.0,72,0.00,,---,0.00,VWS V14.01,2013-02-01 13:11:00,
2013-02-01 07:16:00,-18.8,-25.0,30.38,WNW,298,0.0,0.0,72,0.00,,---,0.00,VWS V14.01,2013-02-01 13:16:00,
2013-02-01 07:21:00,-18.9,-25.1,30.37,WNW,298,0.0,0.0,72,0.00,,---,0.00,VWS V14.01,2013-02-01 13:21:00,
2013-02-01 07:26:00,-19.1,-25.3,30.37,WNW,298,0.0,0.0,72,0.00,,---,0.00,VWS V14.01,2013-02-01 13:26:00,
2013-02-01 07:30:00,-18.7,-24.4,30.36,WNW,298,0.0,0.0,74,0.00,,---,0.00,VWS V14.01,2013-02-01 13:30:00,
2013-02-01 07:31:00,-19.2,-25.4,30.38,WNW,298,0.0,0.0,72,0.00,,---,0.00,VWS V14.01,2013-02-01 13:31:00,
2013-02-01 07:36:00,-19.3,-25.5,30.38,WNW,298,0.0,0.0,72,0.00,,---,0.00,VWS V14.01,2013-02-01 13:36:00,
2013-02-01 07:41:00,-19.4,-25.6,30.37,WNW,298,0.0,0.0,72,0.00,,---,0.00,VWS V14.01,2013-02-01 13:41:00,
2013-02-01 07:46:00,-19.4,-25.6,30.37,WNW,298,0.0,0.0,72,0.00,,---,0.00,VWS V14.01,2013-02-01 13:46:00,
2013-02-01 07:51:00,-19.6,-25.8,30.37,WNW,298,0.0,0.0,72,0.00,,---,0.00,VWS V14.01,2013-02-01 13:51:00,
2013-02-01 07:56:00,-19.6,-25.8,30.37,WNW,298,0.0,0.0,72,0.00,,---,0.00,VWS V14.01,2013-02-01 13:56:00,
2013-02-01 08:00:00,-14.9,-21.0,30.35,SE,140,0.0,1.0,73,0.00,,---,0.00,VWS V14.01,2013-02-01 14:00:00,
2013-02-01 08:01:00,-19.7,-25.9,30.37,WNW,298,0.0,0.0,72,0.00,,---,0.00,VWS V14.01,2013-02-01 14:01:00,
2013-02-01 08:06:00,-19.7,-25.9,30.37,WNW,298,0.0,0.0,72,0.00,,---,0.00,VWS V14.01,2013-02-01 14:06:00,
2013-02-01 08:11:00,-19.7,-25.9,30.37,WNW,298,0.0,0.0,72,0.00,,---,0.00,VWS V14.01,2013-02-01 14:11:00,
2013-02-01 08:16:00,-19.6,-25.8,30.37,WNW,298,0.0,0.0,72,0.00,,---,0.00,VWS V14.01,2013-02-01 14:16:00,
2013-02-01 08:21:00,-19.4,-25.4,30.37,WNW,298,0.0,0.0,73,0.00,,---,0.00,VWS V14.01,2013-02-01 14:21:00,
2013-02-01 08:26:00,-19.1,-25.1,30.37,WNW,298,0.0,0.0,73,0.00,,---,0.00,VWS V14.01,2013-02-01 14:26:00,
2013-02-01 08:30:00,-13.7,-20.4,30.34,SW,215,0.0,2.0,71,0.00,,---,0.00,VWS V14.01,2013-02-01 14:30:00,
2013-02-01 08:31:00,-18.7,-24.4,30.36,WNW,298,0.0,0.0,74,0.00,,---,0.00,VWS V14.01,2013-02-01 14:31:00,
2013-02-01 08:36:00,-18.0,-23.8,30.36,WNW,298,0.0,0.0,74,0.00,,---,0.00,VWS V14.01,2013-02-01 14:36:00,
2013-02-01 08:41:00,-17.0,-22.5,30.36,WNW,298,0.0,0.0,75,0.00,,---,0.00,VWS V14.01,2013-02-01 14:41:00,
2013-02-01 08:46:00,-16.2,-22.0,30.36,WNW,298,0.0,0.0,74,0.00,,---,0.00,VWS V14.01,2013-02-01 14:46:00,
2013-02-01 08:51:00,-15.7,-21.5,30.36,SE,140,0.0,1.0,74,0.00,,---,0.00,VWS V14.01,2013-02-01 14:51:00,
2013-02-01 08:56:00,-15.2,-21.0,30.35,SE,140,0.0,1.0,74,0.00,,---,0.00,VWS V14.01,2013-02-01 14:56:00,
2013-02-01 09:00:00,-11.8,-19.1,30.33,South,170,0.0,2.0,69,0.00,,---,0.00,VWS V14.01,2013-02-01 15:00:00,
2013-02-01 09:01:00,-14.9,-21.0,30.35,SE,140,0.0,1.0,73,0.00,,---,0.00,VWS V14.01,2013-02-01 15:01:00,
2013-02-01 09:06:00,-14.7,-21.1,30.35,SE,140,0.0,0.0,72,0.00,,---,0.00,VWS V14.01,2013-02-01 15:06:00,
2013-02-01 09:11:00,-14.5,-20.9,30.35,SE,140,0.0,0.0,72,0.00,,---,0.00,VWS V14.01,2013-02-01 15:11:00,
2013-02-01 09:16:00,-14.3,-20.7,30.35,South,190,0.0,2.0,72,0.00,,---,0.00,VWS V14.01,2013-02-01 15:16:00,
2013-02-01 09:21:00,-14.1,-20.8,30.35,South,190,0.0,2.0,71,0.00,,---,0.00,VWS V14.01,2013-02-01 15:21:00,
2013-02-01 09:26:00,-13.9,-20.6,30.35,SW,215,1.0,2.0,71,0.00,,---,0.00,VWS V14.01,2013-02-01 15:26:00,
2013-02-01 09:30:00,-10.5,-18.4,30.34,SSE,157,0.0,3.0,67,0.00,,---,0.00,VWS V14.01,2013-02-01 15:30:00,
2013-02-01 09:31:00,-13.7,-20.4,30.34,SW,215,0.0,2.0,71,0.00,,---,0.00,VWS V14.01,2013-02-01 15:31:00,
2013-02-01 09:36:00,-13.5,-20.2,30.34,SW,215,0.0,0.0,71,0.00,,---,0.00,VWS V14.01,2013-02-01 15:36:00,
2013-02-01 09:41:00,-13.3,-20.0,30.34,SW,216,0.0,0.0,71,0.00,,---,0.00,VWS V14.01,2013-02-01 15:41:00,
2013-02-01 09:46:00,-13.0,-20.0,30.34,SW,216,0.0,1.0,70,0.00,,---,0.00,VWS V14.01,2013-02-01 15:46:00,
2013-02-01 09:51:00,-12.8,-19.8,30.33,South,171,0.0,1.0,70,0.00,,---,0.00,VWS V14.01,2013-02-01 15:51:00,
2013-02-01 09:56:00,-12.4,-19.4,30.33,South,171,0.0,1.0,70,0.00,,---,0.00,VWS V14.01,2013-02-01 15:56:00,
2013-02-01 10:00:00,-8.2,-17.4,30.33,SSW,203,0.0,2.0,63,0.00,,---,0.00,VWS V14.01,2013-02-01 16:00:00,
2013-02-01 10:01:00,-11.8,-19.1,30.33,South,169,0.0,2.0,69,0.00,,---,0.00,VWS V14.01,2013-02-01 16:01:00,
2013-02-01 10:06:00,-11.6,-19.2,30.33,South,169,0.0,1.0,68,0.00,,---,0.00,VWS V14.01,2013-02-01 16:06:00,
2013-02-01 10:11:00,-11.4,-19.0,30.34,South,176,0.0,1.0,68,0.00,,---,0.00,VWS V14.01,2013-02-01 16:11:00,
2013-02-01 10:16:00,-11.2,-18.8,30.34,SW,217,1.0,2.0,68,0.00,,---,0.00,VWS V14.01,2013-02-01 16:16:00,
2013-02-01 10:21:00,-11.0,-18.6,30.34,SW,217,0.0,2.0,68,0.00,,---,0.00,VWS V14.01,2013-02-01 16:21:00,
2013-02-01 10:26:00,-10.8,-18.7,30.34,SW,226,3.0,3.0,67,0.00,,---,0.00,VWS V14.01,2013-02-01 16:26:00,
2013-02-01 10:30:00,-5.8,-16.1,30.33,SSE,156,0.0,4.0,60,0.00,,---,0.00,VWS V14.01,2013-02-01 16:30:00,
2013-02-01 10:31:00,-10.6,-18.5,30.34,SSE,156,1.0,3.0,67,0.00,,---,0.00,VWS V14.01,2013-02-01 16:31:00,
2013-02-01 10:36:00,-10.2,-15.4,30.34,SSE,159,0.0,1.0,77,0.00,,---,0.00,VWS V14.01,2013-02-01 16:36:00,
2013-02-01 10:41:00,-9.8,-18.0,30.34,SSE,159,0.0,2.0,66,0.00,,---,0.00,VWS V14.01,2013-02-01 16:41:00,
2013-02-01 10:46:00,-9.5,-17.8,30.34,SE,146,2.0,2.0,66,0.00,,---,0.00,VWS V14.01,2013-02-01 16:46:00,
2013-02-01 10:51:00,-9.1,-17.7,30.34,SE,144,0.0,2.0,65,0.00,,---,0.00,VWS V14.01,2013-02-01 16:51:00,
2013-02-01 10:56:00,-8.7,-17.6,30.33,SSW,203,0.0,2.0,64,0.00,,---,0.00,VWS V14.01,2013-02-01 16:56:00,
2013-02-01 11:00:00,-5.3,-15.3,30.31,SW,219,1.0,4.0,61,0.00,,---,0.00,VWS V14.01,2013-02-01 17:00:00,
2013-02-01 11:01:00,-8.2,-17.4,30.33,SSW,203,0.0,2.0,63,0.00,,---,0.00,VWS V14.01,2013-02-01 17:01:00,
2013-02-01 11:06:00,-8.1,-17.3,30.33,SW,228,0.0,3.0,63,0.00,,---,0.00,VWS V14.01,2013-02-01 17:06:00,
2013-02-01 11:11:00,-7.6,-16.8,30.32,SW,227,1.0,3.0,63,0.00,,---,0.00,VWS V14.01,2013-02-01 17:11:00,
2013-02-01 11:16:00,-7.3,-16.9,30.32,SSW,196,0.0,3.0,62,0.00,,---,0.00,VWS V14.01,2013-02-01 17:16:00,
2013-02-01 11:21:00,-7.0,-16.9,30.33,SSW,195,0.0,3.0,61,0.00,,---,0.00,VWS V14.01,2013-02-01 17:21:00,
2013-02-01 11:26:00,-6.4,-16.3,30.33,South,169,0.0,4.0,61,0.00,,---,0.00,VWS V14.01,2013-02-01 17:26:00,
2013-02-01 11:30:00,-4.9,-14.9,30.29,SW,218,0.0,4.0,61,0.00,,---,0.00,VWS V14.01,2013-02-01 17:30:00,
2013-02-01 11:31:00,-5.8,-16.1,30.33,SSE,156,0.0,4.0,60,0.00,,---,0.00,VWS V14.01,2013-02-01 17:31:00,
2013-02-01 11:36:00,-5.5,-15.8,30.33,SW,222,0.0,2.0,60,0.00,,---,0.00,VWS V14.01,2013-02-01 17:36:00,
2013-02-01 11:41:00,-5.6,-15.9,30.33,SSW,192,0.0,2.0,60,0.00,,---,0.00,VWS V14.01,2013-02-01 17:41:00,
2013-02-01 11:46:00,-5.4,-15.7,30.32,South,178,0.0,2.0,60,0.00,,---,0.00,VWS V14.01,2013-02-01 17:46:00,
2013-02-01 11:51:00,-5.5,-15.8,30.32,South,169,0.0,3.0,60,0.00,,---,0.00,VWS V14.01,2013-02-01 17:51:00,
2013-02-01 11:56:00,-5.5,-15.8,30.31,SSE,157,0.0,4.0,60,0.00,,---,0.00,VWS V14.01,2013-02-01 17:56:00,
2013-02-01 12:00:00,-3.2,-13.6,30.28,SE,137,2.0,4.0,60,0.00,,---,0.00,VWS V14.01,2013-02-01 18:00:00,
2013-02-01 12:01:00,-5.4,-15.4,30.31,SE,137,0.0,4.0,61,0.00,,---,0.00,VWS V14.01,2013-02-01 18:01:00,
2013-02-01 12:06:00,-5.3,-15.6,30.31,SW,232,0.0,2.0,60,0.00,,---,0.00,VWS V14.01,2013-02-01 18:06:00,
2013-02-01 12:11:00,-5.2,-15.5,30.31,SW,233,0.0,4.0,60,0.00,,---,0.00,VWS V14.01,2013-02-01 18:11:00,
2013-02-01 12:16:00,-5.3,-15.6,30.31,SW,233,2.0,4.0,60,0.00,,---,0.00,VWS V14.01,2013-02-01 18:16:00,
2013-02-01 12:21:00,-5.3,-15.6,30.30,SSE,165,0.0,4.0,60,0.00,,---,0.00,VWS V14.01,2013-02-01 18:21:00,
2013-02-01 12:26:00,-5.2,-15.5,30.30,SW,218,0.0,4.0,60,0.00,,---,0.00,VWS V14.01,2013-02-01 18:26:00,
2013-02-01 12:30:00,-2.7,-13.5,30.26,SSW,194,1.0,7.0,59,0.00,,---,0.00,VWS V14.01,2013-02-01 18:30:00,
2013-02-01 12:31:00,-4.9,-14.9,30.29,SW,218,0.0,4.0,61,0.00,,---,0.00,VWS V14.01,2013-02-01 18:31:00,
2013-02-01 12:36:00,-4.4,-14.4,30.29,South,187,1.0,2.0,61,0.00,,---,0.00,VWS V14.01,2013-02-01 18:36:00,
2013-02-01 12:41:00,-4.3,-14.6,30.29,SSE,150,0.0,2.0,60,0.00,,---,0.00,VWS V14.01,2013-02-01 18:41:00,
2013-02-01 12:46:00,-4.3,-14.6,30.29,SW,219,2.0,3.0,60,0.00,,---,0.00,VWS V14.01,2013-02-01 18:46:00,
2013-02-01 12:51:00,-4.1,-14.5,30.28,SSE,159,2.0,4.0,60,0.00,,---,0.00,VWS V14.01,2013-02-01 18:51:00,
2013-02-01 12:56:00,-3.6,-14.0,30.28,SE,145,3.0,4.0,60,0.00,,---,0.00,VWS V14.01,2013-02-01 18:56:00,
2013-02-01 13:00:00,-2.4,-12.5,30.25,SSW,198,0.0,5.0,61,0.00,,---,0.00,VWS V14.01,2013-02-01 19:00:00,
2013-02-01 13:01:00,-3.2,-13.6,30.28,South,175,0.0,4.0,60,0.00,,---,0.00,VWS V14.01,2013-02-01 19:01:00,
2013-02-01 13:06:00,-3.2,-13.9,30.27,South,175,1.0,3.0,59,0.00,,---,0.00,VWS V14.01,2013-02-01 19:06:00,
2013-02-01 13:11:00,-3.2,-13.9,30.27,SSE,163,0.0,3.0,59,0.00,,---,0.00,VWS V14.01,2013-02-01 19:11:00,
2013-02-01 13:16:00,-2.9,-13.7,30.26,SSW,198,3.0,3.0,59,0.00,,---,0.00,VWS V14.01,2013-02-01 19:16:00,
2013-02-01 13:21:00,-2.4,-12.9,30.27,SSW,203,2.0,3.0,60,0.00,,---,0.00,VWS V14.01,2013-02-01 19:21:00,
2013-02-01 13:26:00,-2.5,-13.3,30.26,SSW,192,0.0,5.0,59,0.00,,---,0.00,VWS V14.01,2013-02-01 19:26:00,
2013-02-01 13:30:00,-2.7,-12.2,30.24,SSE,165,1.0,6.0,63,0.00,,---,0.00,VWS V14.01,2013-02-01 19:30:00,
2013-02-01 13:31:00,-2.7,-13.5,30.26,SSE,161,5.0,7.0,59,0.00,,---,0.00,VWS V14.01,2013-02-01 19:31:00,
2013-02-01 13:36:00,-2.7,-13.5,30.26,SW,216,0.0,4.0,59,0.00,,---,0.00,VWS V14.01,2013-02-01 19:36:00,
2013-02-01 13:41:00,-2.4,-12.9,30.26,SSE,154,1.0,4.0,60,0.00,,---,0.00,VWS V14.01,2013-02-01 19:41:00,
2013-02-01 13:46:00,-2.5,-12.9,30.26,South,172,0.0,4.0,60,0.00,,---,0.00,VWS V14.01,2013-02-01 19:46:00,
2013-02-01 13:51:00,-2.4,-12.5,30.25,SSE,150,1.0,4.0,61,0.00,,---,0.00,VWS V14.01,2013-02-01 19:51:00,
2013-02-01 13:56:00,-2.3,-12.4,30.25,SSW,198,0.0,5.0,61,0.00,,---,0.00,VWS V14.01,2013-02-01 19:56:00,
2013-02-01 14:00:00,-2.7,-10.9,30.24,SSE,149,0.0,5.0,67,0.00,,---,0.00,VWS V14.01,2013-02-01 20:00:00,
2013-02-01 14:01:00,-2.4,-12.9,30.25,South,188,1.0,5.0,60,0.00,,---,0.00,VWS V14.01,2013-02-01 20:01:00,
2013-02-01 14:06:00,-2.4,-12.9,30.25,SSW,211,3.0,3.0,60,0.00,,---,0.00,VWS V14.01,2013-02-01 20:06:00,
2013-02-01 14:11:00,-2.5,-12.6,30.25,South,191,1.0,4.0,61,0.00,,---,0.00,VWS V14.01,2013-02-01 20:11:00,
2013-02-01 14:16:00,-2.4,-12.2,30.25,South,185,2.0,4.0,62,0.00,,---,0.00,VWS V14.01,2013-02-01 20:16:00,
2013-02-01 14:21:00,-2.5,-12.3,30.25,South,173,0.0,4.0,62,0.00,,---,0.00,VWS V14.01,2013-02-01 20:21:00,
2013-02-01 14:26:00,-2.6,-12.4,30.24,SSE,161,0.0,4.0,62,0.00,,---,0.00,VWS V14.01,2013-02-01 20:26:00,
2013-02-01 14:30:00,-2.7,-12.5,30.24,SSE,149,0.0,6.0,62,0.00,,---,0.00,VWS V14.01,2013-02-01 20:30:00,
2013-02-01 14:35:00,-2.7,-11.9,30.24,SSE,150,0.0,5.0,64,0.00,,---,0.00,VWS V14.01,2013-02-01 20:35:00,
2013-02-01 14:41:00,-2.6,-11.4,30.24,SSE,156,0.0,5.0,65,0.00,,---,0.00,VWS V14.01,2013-02-01 20:41:00,
2013-02-01 14:45:00,-2.5,-11.4,30.24,South,171,0.0,5.0,65,0.00,,---,0.00,VWS V14.01,2013-02-01 20:45:00,
2013-02-01 14:51:00,-2.5,-11.7,30.24,SE,134,3.0,5.0,64,0.00,,---,0.00,VWS V14.01,2013-02-01 20:51:00,
2013-02-01 14:55:00,-2.7,-11.5,30.23,SE,139,4.0,5.0,65,0.00,,---,0.00,VWS V14.01,2013-02-01 20:55:00,
2013-02-01 15:00:00,-2.7,-10.9,30.24,South,188,0.0,5.0,67,0.00,,---,0.00,VWS V14.01,2013-02-01 21:00:00,
2013-02-01 15:05:00,-2.6,-10.5,30.24,SE,145,1.0,2.0,68,0.00,,---,0.00,VWS V14.01,2013-02-01 21:05:00,
2013-02-01 15:10:00,-2.6,-10.5,30.23,SE,138,0.0,3.0,68,0.00,,---,0.00,VWS V14.01,2013-02-01 21:10:00,
2013-02-01 15:15:00,-2.6,-10.2,30.23,SSE,152,0.0,3.0,69,0.00,,---,0.00,VWS V14.01,2013-02-01 21:15:00,
2013-02-01 15:20:00,-2.7,-10.3,30.23,SW,230,1.0,5.0,69,0.00,,---,0.00,VWS V14.01,2013-02-01 21:20:00,
2013-02-01 15:25:00,-2.7,-10.3,30.23,South,169,0.0,5.0,69,0.00,,---,0.00,VWS V14.01,2013-02-01 21:25:00,
2013-02-01 15:30:00,-2.7,-10.1,30.23,SE,138,2.0,5.0,70,0.00,,---,0.00,VWS V14.01,2013-02-01 21:30:00,
2013-02-01 15:35:00,-2.7,-9.8,30.23,SE,130,0.0,3.0,71,0.00,,---,0.00,VWS V14.01,2013-02-01 21:35:00,
2013-02-01 15:40:00,-2.6,-9.7,30.23,SSE,150,1.0,3.0,71,0.00,,---,0.00,VWS V14.01,2013-02-01 21:40:00,
2013-02-01 15:45:00,-2.7,-9.8,30.22,SSE,168,1.0,3.0,71,0.00,,---,0.00,VWS V14.01,2013-02-01 21:45:00,
2013-02-01 15:50:00,-2.8,-9.6,30.23,SE,138,0.0,3.0,72,0.00,,---,0.00,VWS V14.01,2013-02-01 21:50:00,
2013-02-01 15:55:00,-2.7,-9.5,30.22,SE,138,0.0,3.0,72,0.00,,---,0.00,VWS V14.01,2013-02-01 21:55:00,
2013-02-01 16:00:00,-2.6,-9.4,30.22,SSE,164,0.0,3.0,72,0.00,,---,0.00,VWS V14.01,2013-02-01 22:00:00,
2013-02-01 16:06:00,-2.6,-9.4,30.22,SSE,165,0.0,1.0,72,0.00,,---,0.00,VWS V14.01,2013-02-01 22:06:00,
2013-02-01 16:11:00,-2.6,-9.1,30.21,South,172,0.0,1.0,73,0.00,,---,0.00,VWS V14.01,2013-02-01 22:11:00,
2013-02-01 16:15:00,-2.5,-9.0,30.21,South,173,0.0,1.0,73,0.00,,---,0.00,VWS V14.01,2013-02-01 22:15:00,
2013-02-01 16:20:00,-2.4,-8.6,30.21,South,173,0.0,1.0,74,0.00,,---,0.00,VWS V14.01,2013-02-01 22:20:00,
2013-02-01 16:25:00,-2.2,-8.4,30.21,South,173,0.0,1.0,74,0.00,,---,0.00,VWS V14.01,2013-02-01 22:25:00,
2013-02-01 16:30:00,-2.1,-8.6,30.21,South,173,0.0,1.0,73,0.00,,---,0.00,VWS V14.01,2013-02-01 22:30:00,
2013-02-01 16:36:00,-2.0,-8.5,30.21,South,172,0.0,0.0,73,0.00,,---,0.00,VWS V14.01,2013-02-01 22:36:00,
2013-02-01 16:41:00,-2.0,-8.5,30.21,South,173,0.0,0.0,73,0.00,,---,0.00,VWS V14.01,2013-02-01 22:41:00,
2013-02-01 16:46:00,-1.9,-8.4,30.21,South,172,0.0,0.0,73,0.00,,---,0.00,VWS V14.01,2013-02-01 22:46:00,
2013-02-01 16:51:00,-1.9,-8.1,30.20,South,172,0.0,0.0,74,0.00,,---,0.00,VWS V14.01,2013-02-01 22:51:00,
2013-02-01 16:55:00,-2.0,-8.2,30.21,South,172,0.0,0.0,74,0.00,,---,0.00,VWS V14.01,2013-02-01 22:55:00,
2013-02-01 17:00:00,-2.0,-8.2,30.20,South,172,0.0,0.0,74,0.00,,---,0.00,VWS V14.01,2013-02-01 23:00:00,
2013-02-01 17:05:00,-2.0,-8.2,30.20,South,173,0.0,0.0,74,0.00,,---,0.00,VWS V14.01,2013-02-01 23:05:00,
2013-02-01 17:10:00,-2.0,-8.0,30.20,South,173,0.0,1.0,75,0.00,,---,0.00,VWS V14.01,2013-02-01 23:10:00,
2013-02-01 17:15:00,-1.9,-7.9,30.20,South,182,0.0,1.0,75,0.00,,---,0.00,VWS V14.01,2013-02-01 23:15:00,
2013-02-01 17:20:00,-1.9,-7.9,30.20,SSE,148,0.0,3.0,75,0.00,,---,0.00,VWS V14.01,2013-02-01 23:20:00,
2013-02-01 17:25:00,-1.9,-8.1,30.20,SSE,148,0.0,3.0,74,0.00,,---,0.00,VWS V14.01,2013-02-01 23:25:00,
2013-02-01 17:30:00,-1.8,-8.1,30.20,SSE,148,0.0,3.0,74,0.00,,---,0.00,VWS V14.01,2013-02-01 23:30:00,
2013-02-01 17:35:00,-1.8,-8.1,30.20,SSE,148,0.0,0.0,74,0.00,,---,0.00,VWS V14.01,2013-02-01 23:35:00,
2013-02-01 17:40:00,-1.8,-8.1,30.20,SSE,148,0.0,0.0,74,0.00,,---,0.00,VWS V14.01,2013-02-01 23:40:00,
2013-02-01 17:45:00,-1.8,-8.1,30.20,SSE,148,0.0,0.0,74,0.00,,---,0.00,VWS V14.01,2013-02-01 23:45:00,
2013-02-01 17:50:00,-1.8,-8.1,30.20,SSE,150,0.0,1.0,74,0.00,,---,0.00,VWS V14.01,2013-02-01 23:50:00,
2013-02-01 17:55:00,-1.8,-8.1,30.20,SSE,150,0.0,1.0,74,0.00,,---,0.00,VWS V14.01,2013-02-01 23:55:00,
2013-02-01 18:00:00,-1.8,-8.1,30.20,SSE,150,1.0,1.0,74,0.00,,---,0.00,VWS V14.01,2013-02-02 00:00:00,
2013-02-01 18:05:00,-1.8,-8.1,30.21,SSE,150,0.0,0.0,74,0.00,,---,0.00,VWS V14.01,2013-02-02 00:05:00,
2013-02-01 18:10:00,-1.8,-7.8,30.20,SSE,150,0.0,1.0,75,0.00,,---,0.00,VWS V14.01,2013-02-02 00:10:00,
2013-02-01 18:15:00,-1.7,-7.7,30.20,SSE,150,0.0,1.0,75,0.00,,---,0.00,VWS V14.01,2013-02-02 00:15:00,
2013-02-01 18:20:00,-1.7,-7.7,30.20,SSE,150,0.0,1.0,75,0.00,,---,0.00,VWS V14.01,2013-02-02 00:20:00,
2013-02-01 18:25:00,-1.7,-7.7,30.20,SSE,150,0.0,1.0,75,0.00,,---,0.00,VWS V14.01,2013-02-02 00:25:00,
2013-02-01 18:30:00,-1.7,-7.9,30.20,SSE,158,0.0,2.0,74,0.00,,---,0.00,VWS V14.01,2013-02-02 00:30:00,
2013-02-01 18:35:00,-1.8,-8.1,30.21,SSE,163,0.0,4.0,74,0.00,,---,0.00,VWS V14.01,2013-02-02 00:35:00,
2013-02-01 18:40:00,-1.8,-8.1,30.22,SSE,163,0.0,4.0,74,0.00,,---,0.00,VWS V14.01,2013-02-02 00:40:00,
2013-02-01 18:45:00,-1.7,-7.7,30.22,SSE,163,0.0,4.0,75,0.00,,---,0.00,VWS V14.01,2013-02-02 00:45:00,
2013-02-01 18:50:00,-1.7,-7.9,30.21,SSE,163,0.0,4.0,74,0.00,,---,0.00,VWS V14.01,2013-02-02 00:50:00,
2013-02-01 18:55:00,-1.6,-7.6,30.21,SSE,163,0.0,4.0,75,0.00,,---,0.00,VWS V14.01,2013-02-02 00:55:00,
2013-02-01 19:00:00,-1.6,-7.6,30.21,SSE,163,0.0,4.0,75,0.00,,---,0.00,VWS V14.01,2013-02-02 01:00:00,
2013-02-01 19:05:00,-1.6,-7.6,30.22,SSE,163,0.0,0.0,75,0.00,,---,0.00,VWS V14.01,2013-02-02 01:05:00,
2013-02-01 19:10:00,-1.5,-7.5,30.22,SSE,163,0.0,0.0,75,0.00,,---,0.00,VWS V14.01,2013-02-02 01:10:00,
2013-02-01 19:15:00,-1.5,-7.5,30.22,SSE,163,0.0,0.0,75,0.00,,---,0.00,VWS V14.01,2013-02-02 01:15:00,
2013-02-01 19:20:00,-1.5,-7.8,30.21,SSE,163,0.0,0.0,74,0.00,,---,0.00,VWS V14.01,2013-02-02 01:20:00,
2013-02-01 19:25:00,-1.4,-7.4,30.21,SSE,163,0.0,0.0,75,0.00,,---,0.00,VWS V14.01,2013-02-02 01:25:00,
2013-02-01 19:30:00,-1.4,-7.4,30.21,SSE,163,0.0,0.0,75,0.00,,---,0.00,VWS V14.01,2013-02-02 01:30:00,
2013-02-01 19:35:00,-1.4,-7.4,30.21,SSE,163,0.0,0.0,75,0.00,,---,0.00,VWS V14.01,2013-02-02 01:35:00,
2013-02-01 19:40:00,-1.4,-7.4,30.21,SSE,163,0.0,0.0,75,0.00,,---,0.00,VWS V14.01,2013-02-02 01:40:00,
2013-02-01 19:45:00,-1.4,-7.4,30.21,SSE,163,0.0,0.0,75,0.00,,---,0.00,VWS V14.01,2013-02-02 01:45:00,
2013-02-01 19:50:00,-1.4,-7.4,30.21,SSE,163,0.0,0.0,75,0.00,,---,0.00,VWS V14.01,2013-02-02 01:50:00,
2013-02-01 19:55:00,-1.4,-7.4,30.20,SSE,163,0.0,0.0,75,0.00,,---,0.00,VWS V14.01,2013-02-02 01:55:00,
2013-02-01 20:00:00,-1.4,-7.4,30.21,SSE,163,0.0,0.0,75,0.00,,---,0.00,VWS V14.01,2013-02-02 02:00:00,
2013-02-01 20:05:00,-1.3,-7.3,30.21,SSE,163,0.0,0.0,75,0.00,,---,0.00,VWS V14.01,2013-02-02 02:05:00,
2013-02-01 20:10:00,-1.4,-7.4,30.20,SSE,163,0.0,0.0,75,0.00,,---,0.00,VWS V14.01,2013-02-02 02:10:00,
2013-02-01 20:15:00,-1.4,-7.4,30.20,SSE,163,0.0,0.0,75,0.00,,---,0.00,VWS V14.01,2013-02-02 02:15:00,
2013-02-01 20:20:00,-1.4,-7.4,30.20,SSE,163,0.0,0.0,75,0.00,,---,0.00,VWS V14.01,2013-02-02 02:20:00,
2013-02-01 20:25:00,-1.3,-7.3,30.20,SSE,163,0.0,0.0,75,0.00,,---,0.00,VWS V14.01,2013-02-02 02:25:00,
2013-02-01 20:30:00,-1.3,-7.3,30.20,SSE,163,0.0,0.0,75,0.00,,---,0.00,VWS V14.01,2013-02-02 02:30:00,
2013-02-01 20:35:00,-1.3,-7.3,30.20,SSE,163,0.0,0.0,75,0.00,,---,0.00,VWS V14.01,2013-02-02 02:35:00,
2013-02-01 20:40:00,-1.3,-7.3,30.20,SSE,163,0.0,0.0,75,0.00,,---,0.00,VWS V14.01,2013-02-02 02:40:00,
2013-02-01 20:45:00,-1.4,-7.4,30.19,SSE,163,0.0,0.0,75,0.00,,---,0.00,VWS V14.01,2013-02-02 02:45:00,
2013-02-01 20:50:00,-1.4,-7.4,30.20,SSE,163,0.0,0.0,75,0.00,,---,0.00,VWS V14.01,2013-02-02 02:50:00,
2013-02-01 20:55:00,-1.3,-7.3,30.20,SSE,163,0.0,0.0,75,0.00,,---,0.00,VWS V14.01,2013-02-02 02:55:00,
2013-02-01 21:00:00,-1.3,-7.3,30.19,SSE,163,0.0,0.0,75,0.00,,---,0.00,VWS V14.01,2013-02-02 03:00:00,
2013-02-01 21:05:00,-1.4,-7.4,30.19,SSE,163,0.0,0.0,75,0.00,,---,0.00,VWS V14.01,2013-02-02 03:05:00,
2013-02-01 21:10:00,-1.4,-7.4,30.19,SSE,163,0.0,0.0,75,0.00,,---,0.00,VWS V14.01,2013-02-02 03:10:00,
2013-02-01 21:15:00,-1.3,-7.3,30.19,SSE,163,0.0,0.0,75,0.00,,---,0.00,VWS V14.01,2013-02-02 03:15:00,
2013-02-01 21:20:00,-1.3,-7.3,30.19,SSE,163,0.0,0.0,75,0.00,,---,0.00,VWS V14.01,2013-02-02 03:20:00,
2013-02-01 21:25:00,-1.3,-7.3,30.19,SSE,163,0.0,0.0,75,0.00,,---,0.00,VWS V14.01,2013-02-02 03:25:00,
2013-02-01 21:30:00,-1.3,-7.3,30.19,SSE,163,0.0,0.0,75,0.00,,---,0.00,VWS V14.01,2013-02-02 03:30:00,
2013-02-01 21:35:00,-1.3,-7.3,30.20,SSE,163,0.0,0.0,75,0.00,,---,0.00,VWS V14.01,2013-02-02 03:35:00,
2013-02-01 21:40:00,-1.3,-7.3,30.20,SSE,163,0.0,0.0,75,0.00,,---,0.00,VWS V14.01,2013-02-02 03:40:00,
2013-02-01 21:45:00,-1.3,-7.3,30.19,SSE,163,0.0,0.0,75,0.00,,---,0.00,VWS V14.01,2013-02-02 03:45:00,
2013-02-01 21:50:00,-1.3,-7.3,30.20,SSE,163,0.0,0.0,75,0.00,,---,0.00,VWS V14.01,2013-02-02 03:50:00,
2013-02-01 21:55:00,-1.2,-7.2,30.20,SSE,163,0.0,0.0,75,0.00,,---,0.00,VWS V14.01,2013-02-02 03:55:00,
2013-02-01 22:00:00,-1.2,-7.2,30.20,SSE,163,0.0,0.0,75,0.00,,---,0.00,VWS V14.01,2013-02-02 04:00:00,
2013-02-01 22:05:00,-1.2,-7.2,30.20,SSE,163,0.0,0.0,75,0.00,,---,0.00,VWS V14.01,2013-02-02 04:05:00,
2013-02-01 22:10:00,-1.2,-7.2,30.20,SSE,163,0.0,0.0,75,0.00,,---,0.00,VWS V14.01,2013-02-02 04:10:00,
2013-02-01 22:15:00,-1.2,-7.2,30.20,SSE,163,0.0,0.0,75,0.00,,---,0.00,VWS V14.01,2013-02-02 04:15:00,
2013-02-01 22:20:00,-1.1,-7.1,30.19,SSE,163,0.0,0.0,75,0.00,,---,0.00,VWS V14.01,2013-02-02 04:20:00,
2013-02-01 22:25:00,-1.1,-7.1,30.20,SSE,163,0.0,0.0,75,0.00,,---,0.00,VWS V14.01,2013-02-02 04:25:00,
2013-02-01 22:30:00,-1.0,-7.0,30.20,SSE,163,0.0,0.0,75,0.00,,---,0.00,VWS V14.01,2013-02-02 04:30:00,
2013-02-01 22:35:00,-1.0,-7.0,30.20,SSE,163,0.0,0.0,75,0.00,,---,0.00,VWS V14.01,2013-02-02 04:35:00,
2013-02-01 22:40:00,-1.0,-7.0,30.20,SSE,163,0.0,0.0,75,0.00,,---,0.00,VWS V14.01,2013-02-02 04:40:00,
2013-02-01 22:45:00,-1.0,-7.0,30.20,SSE,163,0.0,0.0,75,0.00,,---,0.00,VWS V14.01,2013-02-02 04:45:00,
2013-02-01 22:50:00,-0.9,-6.9,30.20,SSE,163,0.0,0.0,75,0.00,,---,0.00,VWS V14.01,2013-02-02 04:50:00,
2013-02-01 22:55:00,-0.9,-6.9,30.20,SSE,163,0.0,0.0,75,0.00,,---,0.00,VWS V14.01,2013-02-02 04:55:00,
2013-02-01 23:00:00,-0.9,-6.9,30.20,SSE,163,0.0,0.0,75,0.00,,---,0.00,VWS V14.01,2013-02-02 05:00:00,
2013-02-01 23:05:00,-0.9,-6.9,30.20,SSE,163,0.0,0.0,75,0.00,,---,0.00,VWS V14.01,2013-02-02 05:05:00,
2013-02-01 23:10:00,-0.9,-6.9,30.20,SSE,163,0.0,0.0,75,0.00,,---,0.00,VWS V14.01,2013-02-02 05:10:00,
2013-02-01 23:15:00,-0.9,-6.9,30.20,SSE,163,0.0,0.0,75,0.00,,---,0.00,VWS V14.01,2013-02-02 05:15:00,
2013-02-01 23:20:00,-0.8,-6.8,30.20,SSE,163,0.0,0.0,75,0.00,,---,0.00,VWS V14.01,2013-02-02 05:20:00,
2013-02-01 23:25:00,-0.9,-6.9,30.21,SSE,163,0.0,0.0,75,0.00,,---,0.00,VWS V14.01,2013-02-02 05:25:00,
2013-02-01 23:30:00,-0.8,-6.8,30.21,SSE,163,0.0,0.0,75,0.00,,---,0.00,VWS V14.01,2013-02-02 05:30:00,
2013-02-01 23:35:00,-0.8,-6.8,30.21,SSE,163,0.0,0.0,75,0.00,,---,0.00,VWS V14.01,2013-02-02 05:35:00,
2013-02-01 23:40:00,-0.8,-6.8,30.21,SSE,163,0.0,0.0,75,0.00,,---,0.00,VWS V14.01,2013-02-02 05:40:00,
2013-02-01 23:45:00,-0.8,-6.8,30.21,SSE,163,0.0,0.0,75,0.00,,---,0.00,VWS V14.01,2013-02-02 05:45:00,
2013-02-01 23:50:00,-0.8,-6.8,30.21,SSE,163,0.0,0.0,75,0.00,,---,0.00,VWS V14.01,2013-02-02 05:50:00,
2013-02-01 23:55:00,-0.7,-6.7,30.21,SSE,163,0.0,0.0,75,0.00,,---,0.00,VWS V14.01,2013-02-02 05:55:00,